CFG2016 KMCO-TNCM

Flight info

Callsign CFG2016
Flight time N/A
Altitude 41000
Route DDANY3 JIPOD DCT VENDS Y185 COUKY DCT FIPEK Y355 SLUGO
Aircraft A339/H-SADE1E2E3GHIJ3J5M1P2RWXY/LB2D1

Departure

Time 2026-04-25 14:38
Airport Orlando International Airport (KMCO)

Arrival

Time N/A
Airport Princess Juliana International Airport (TNCM)
Time Latitude Longitude Altitude Speed Heading
2026-04-25 13:57 28.41231 -81.31632 100 ft 0 kts 180°
2026-04-25 14:19 28.41234 -81.31632 100 ft 3 kts 180°
2026-04-25 14:19 28.41261 -81.31632 100 ft 4 kts 179°
2026-04-25 14:19 28.41287 -81.31633 101 ft 4 kts 180°
2026-04-25 14:20 28.41311 -81.31632 99 ft 4 kts 207°
2026-04-25 14:20 28.41325 -81.31624 99 ft 4 kts 230°
2026-04-25 14:20 28.41343 -81.31591 101 ft 3 kts 252°
2026-04-25 14:20 28.41344 -81.31587 101 ft 0 kts 252°
2026-04-25 14:26 28.41340 -81.31599 101 ft 4 kts 252°
2026-04-25 14:26 28.41337 -81.31648 103 ft 8 kts 273°
2026-04-25 14:27 28.41331 -81.31755 101 ft 19 kts 269°
2026-04-25 14:27 28.41330 -81.31838 104 ft 0 kts 269°
2026-04-25 14:28 28.41330 -81.31840 104 ft 1 kts 269°
2026-04-25 14:29 28.41330 -81.31877 105 ft 11 kts 275°
2026-04-25 14:29 28.41396 -81.31909 105 ft 14 kts 359°
2026-04-25 14:29 28.41535 -81.31896 105 ft 26 kts 16°
2026-04-25 14:29 28.41741 -81.31872 105 ft 32 kts
2026-04-25 14:30 28.41967 -81.31878 105 ft 33 kts 359°
2026-04-25 14:30 28.42336 -81.31829 106 ft 11 kts 17°
2026-04-25 14:30 28.42347 -81.31736 105 ft 16 kts 90°
2026-04-25 14:31 28.42349 -81.31570 103 ft 25 kts 89°
2026-04-25 14:31 28.42350 -81.31338 100 ft 32 kts 90°
2026-04-25 14:31 28.42329 -81.31087 103 ft 32 kts 102°
2026-04-25 14:31 28.42325 -81.30843 100 ft 31 kts 87°
2026-04-25 14:32 28.42338 -81.30601 102 ft 30 kts 85°
2026-04-25 14:32 28.42357 -81.30359 100 ft 31 kts 85°
2026-04-25 14:32 28.42361 -81.30117 100 ft 31 kts 90°
2026-04-25 14:32 28.42361 -81.29876 103 ft 30 kts 88°
2026-04-25 14:33 28.42386 -81.29757 102 ft 5 kts 14°
2026-04-25 14:33 28.42443 -81.29784 103 ft 16 kts 340°
2026-04-25 14:33 28.42585 -81.29797 102 ft 23 kts 359°
2026-04-25 14:33 28.42725 -81.29798 102 ft 8 kts 360°
2026-04-25 14:34 28.42784 -81.29798 101 ft 3 kts 359°
2026-04-25 14:34 28.42816 -81.29798 102 ft 6 kts 359°
2026-04-25 14:34 28.42867 -81.29799 101 ft 9 kts 359°
2026-04-25 14:34 28.42938 -81.29799 102 ft 11 kts 359°
2026-04-25 14:35 28.43031 -81.29801 102 ft 16 kts 359°
2026-04-25 14:35 28.43167 -81.29803 103 ft 23 kts 359°
2026-04-25 14:35 28.43330 -81.29804 102 ft 16 kts 360°
2026-04-25 14:35 28.43444 -81.29803 102 ft 17 kts
2026-04-25 14:36 28.43529 -81.29800 101 ft 9 kts 17°
2026-04-25 14:36 28.43547 -81.29747 103 ft 8 kts 81°
2026-04-25 14:36 28.43548 -81.29679 104 ft 9 kts 89°
2026-04-25 14:36 28.43536 -81.29611 104 ft 6 kts 129°
2026-04-25 14:37 28.43497 -81.29594 105 ft 0 kts 174°
2026-04-25 14:37 28.43447 -81.29589 105 ft 25 kts 175°
2026-04-25 14:37 28.42937 -81.29583 105 ft 120 kts 179°
2026-04-25 14:37 28.41880 -81.29567 397 ft 166 kts 179°
2026-04-25 14:38 28.40694 -81.29545 1285 ft 175 kts 180°
2026-04-25 14:38 28.39470 -81.29356 2237 ft 181 kts 166°
2026-04-25 14:38 28.38204 -81.28936 2972 ft 198 kts 163°
2026-04-25 14:38 28.36869 -81.28407 3719 ft 209 kts 159°
2026-04-25 14:39 28.35573 -81.27578 4408 ft 220 kts 145°
2026-04-25 14:39 28.34360 -81.26413 5015 ft 238 kts 134°
2026-04-25 14:39 28.33227 -81.24960 5617 ft 252 kts 132°
2026-04-25 14:39 28.32117 -81.23375 6242 ft 262 kts 120°
2026-04-25 14:40 28.31503 -81.21404 6856 ft 271 kts 100°
2026-04-25 14:40 28.31270 -81.19235 7323 ft 286 kts 96°
2026-04-25 14:40 28.31043 -81.16935 7827 ft 298 kts 95°
2026-04-25 14:40 28.30801 -81.14625 8807 ft 294 kts 96°
2026-04-25 14:41 28.30544 -81.12311 9589 ft 298 kts 96°
2026-04-25 14:41 28.30290 -81.09962 10294 ft 304 kts 96°
2026-04-25 14:41 28.30122 -81.08347 10452 ft 319 kts 95°
2026-04-25 14:41 28.29865 -81.05760 10660 ft 341 kts 95°
2026-04-25 14:42 28.29599 -81.03023 11063 ft 353 kts 95°